Radford, VA

4:55 PM EST on February 21, 2017 (GMT -0500)
New River Valley

Weather History for KPSK - January, 2014

Change the Weather History Date:

Monday, January 6, 2014

  Actual Average (KBCB) Record (KBCB)
Temperature  
Mean Temperature 23 °F -  
Max Temperature 46 °F 40 °F 60 °F (2007)
Min Temperature 0 °F 21 °F -2 °F (2014)
Degree Days  
Heating Degree Days 42    
Moisture  
Dew Point 15 °F    
Average Humidity 70    
Maximum Humidity 100    
Minimum Humidity 52    
Precipitation  
Precipitation 0.00 in - - ()
Sea Level Pressure  
Sea Level Pressure 29.84 in    
Wind  
Wind Speed 14 mph (West)    
Max Wind Speed 23 mph    
Max Gust Speed 33 mph    
Visibility 10 miles    
Events Rain , Snow    
Averages and records for this station are not official NWS values.
T = Trace of Precipitation, MM = Missing Value Source: NWS Daily Summary

Daily Weather History Graph

Daily Weather History Graph

Search for Another Location

Airport or City:

Trip Planner

Search our weather history database for the weather conditions in past years. The results will help you decide how hot, cold, wet, or windy it might be!

Date:

Astronomy

Jan. 06, 2014 Rise Set
Actual Time 7:36 AM EST 5:20 PM EST
Civil Twilight 7:08 AM EST 5:49 PM EST
Nautical Twilight 6:35 AM EST 6:21 PM EST
Astronomical Twilight 6:04 AM EST 6:53 PM EST
Moon 11:00 AM EST (1/6) 11:42 PM EST (1/6)
Length of Visible Light 10h 41m
Length of Day
9h 43m
Waxing Crescent, 34% of the Moon is Illuminated
Jan 6
Waxing Crescent
Jan 7
First Quarter
Jan 15
Full
Jan 24
Last Quarter
Jan 30
New

Hourly Weather History & Observations

Time (EST) Temp. Windchill Dew Point Humidity Pressure Visibility Wind Dir Wind Speed Gust Speed Precip Events Conditions
12:15 AM 46.4 °F 41.1 °F 44.6 °F 93% 29.65 in 10.0 mi SSW 11.5 mph 18.4 mph N/A   Overcast
12:35 AM 46.4 °F 41.1 °F 44.6 °F 93% 29.63 in 10.0 mi South 11.5 mph 17.3 mph N/A   Overcast
12:55 AM 46.4 °F 40.4 °F 42.8 °F 87% 29.62 in 10.0 mi SSW 13.8 mph 19.6 mph N/A   Overcast
1:15 AM 46.4 °F 41.9 °F 44.6 °F 93% 29.61 in 10.0 mi SSW 9.2 mph - N/A   Overcast
1:35 AM 46.4 °F 41.9 °F 44.6 °F 93% 29.60 in 10.0 mi South 9.2 mph - N/A   Overcast
1:55 AM 46.4 °F 41.9 °F 44.6 °F 93% 29.58 in 10.0 mi South 9.2 mph 16.1 mph N/A   Drizzle
2:15 AM 44.6 °F 37.4 °F 44.6 °F 100% 29.57 in 10.0 mi South 16.1 mph 21.9 mph N/A   Overcast
2:35 AM 44.6 °F 39.7 °F 44.6 °F 100% 29.59 in 10.0 mi SW 9.2 mph - N/A   Overcast
2:55 AM 44.6 °F 39.2 °F 44.6 °F 100% 29.60 in 10.0 mi SSW 10.4 mph - N/A Rain Rain
3:15 AM 44.6 °F 37.4 °F 44.6 °F 100% 29.64 in 7.0 mi West 16.1 mph 26.5 mph N/A Rain Light Rain
3:35 AM 42.8 °F 36.2 °F 41.0 °F 93% 29.65 in 10.0 mi West 12.7 mph 17.3 mph N/A   Overcast
3:55 AM 42.8 °F 34.8 °F 37.4 °F 81% 29.66 in 10.0 mi West 17.3 mph 31.1 mph N/A   Overcast
4:15 AM 39.2 °F 30.5 °F 35.6 °F 87% 29.67 in 10.0 mi West 16.1 mph 24.2 mph N/A   Overcast
4:35 AM 39.2 °F 32.5 °F 35.6 °F 87% 29.67 in 10.0 mi WNW 10.4 mph - N/A Rain Light Rain
4:55 AM 37.4 °F 29.3 °F 33.8 °F 87% 29.67 in 10.0 mi WNW 12.7 mph 23.0 mph N/A   Overcast
5:15 AM 37.4 °F 27.8 °F 33.8 °F 87% 29.68 in 10.0 mi West 17.3 mph 25.3 mph N/A   Overcast
5:35 AM 37.4 °F 31.4 °F 30.2 °F 75% 29.68 in 10.0 mi WNW 8.1 mph 19.6 mph N/A   Overcast
5:55 AM 35.6 °F 27.5 °F 30.2 °F 81% 29.70 in 10.0 mi West 11.5 mph 23.0 mph N/A   Overcast
6:15 AM 33.8 °F 24.3 °F 28.4 °F 81% 29.71 in 10.0 mi WNW 13.8 mph 21.9 mph N/A   Overcast
6:35 AM 33.8 °F 23.2 °F 26.6 °F 75% 29.71 in 10.0 mi West 17.3 mph 24.2 mph N/A   Overcast
6:55 AM 32.0 °F 21.6 °F 26.6 °F 80% 29.73 in 10.0 mi WNW 15.0 mph 19.6 mph N/A   Overcast
7:15 AM 32.0 °F 21.6 °F 26.6 °F 80% 29.74 in 10.0 mi WNW 15.0 mph 19.6 mph N/A   Overcast
7:35 AM 30.2 °F 18.1 °F 24.8 °F 80% 29.75 in 10.0 mi WNW 18.4 mph 24.2 mph N/A   Overcast
7:55 AM 30.2 °F 17.8 °F 24.8 °F 80% 29.76 in 10.0 mi WNW 19.6 mph 24.2 mph N/A   Overcast
8:15 AM 30.2 °F 16.8 °F 23.0 °F 75% 29.77 in 10.0 mi WNW 23.0 mph 29.9 mph N/A   Overcast
8:35 AM 28.4 °F 15.1 °F 21.2 °F 74% 29.78 in 10.0 mi WNW 20.7 mph 31.1 mph N/A   Overcast
8:55 AM 28.4 °F 17.5 °F 21.2 °F 74% 29.79 in 10.0 mi WNW 13.8 mph 17.3 mph N/A Snow Light Snow
9:15 AM 28.4 °F 18.0 °F 21.2 °F 74% 29.80 in 10.0 mi WNW 12.7 mph 20.7 mph N/A Snow Light Snow
9:35 AM 28.4 °F 18.0 °F 19.4 °F 69% 29.81 in 10.0 mi WNW 12.7 mph - N/A Snow Light Snow
9:55 AM 26.6 °F 12.0 °F 17.6 °F 69% 29.81 in 10.0 mi WNW 23.0 mph 29.9 mph N/A   Mostly Cloudy
10:15 AM 26.6 °F 12.4 °F 15.8 °F 64% 29.82 in 10.0 mi WNW 21.9 mph 26.5 mph N/A   Scattered Clouds
10:35 AM 26.6 °F 14.7 °F 15.8 °F 64% 29.83 in 10.0 mi WNW 15.0 mph 24.2 mph N/A   Scattered Clouds
10:55 AM 26.6 °F 14.3 °F 15.8 °F 64% 29.83 in 10.0 mi WNW 16.1 mph 24.2 mph N/A   Mostly Cloudy
11:15 AM 26.6 °F 13.8 °F 15.8 °F 64% 29.82 in 10.0 mi WNW 17.3 mph 25.3 mph N/A   Overcast
11:35 AM 24.8 °F 11.5 °F 12.2 °F 59% 29.83 in 10.0 mi WNW 17.3 mph 29.9 mph N/A   Overcast
11:55 AM 24.8 °F 12.9 °F 12.2 °F 59% 29.82 in 10.0 mi WNW 13.8 mph 31.1 mph N/A   Overcast
12:15 PM 24.8 °F 12.4 °F 12.2 °F 59% 29.81 in 10.0 mi WNW 15.0 mph 20.7 mph N/A   Overcast
12:35 PM 24.8 °F 11.5 °F 12.2 °F 59% 29.81 in 10.0 mi West 17.3 mph 24.2 mph N/A Snow Light Snow
12:55 PM 24.8 °F 10.3 °F 12.2 °F 59% 29.80 in 10.0 mi West 20.7 mph 26.5 mph N/A   Overcast
1:15 PM 24.8 °F 10.3 °F 10.4 °F 54% 29.80 in 10.0 mi WNW 20.7 mph 28.8 mph N/A   Mostly Cloudy
1:35 PM 24.8 °F 11.5 °F 10.4 °F 54% 29.80 in 10.0 mi West 17.3 mph 23.0 mph N/A   Scattered Clouds
1:55 PM 24.8 °F 10.0 °F 10.4 °F 54% 29.82 in 10.0 mi West 21.9 mph 31.1 mph N/A   Scattered Clouds
2:15 PM 23.0 °F 8.0 °F 12.2 °F 63% 29.81 in 10.0 mi West 20.7 mph 33.4 mph N/A   Mostly Cloudy
2:35 PM 21.2 °F 5.6 °F 12.2 °F 68% 29.84 in 10.0 mi West 20.7 mph 32.2 mph N/A   Scattered Clouds
2:55 PM 21.2 °F 8.3 °F 8.6 °F 58% 29.86 in 10.0 mi WNW 13.8 mph - N/A   Scattered Clouds
3:15 PM 19.4 °F 5.5 °F 6.8 °F 58% 29.87 in 10.0 mi WNW 15.0 mph 21.9 mph N/A   Mostly Cloudy
3:35 PM 17.6 °F 3.7 °F 6.8 °F 63% 29.88 in 10.0 mi West 13.8 mph 20.7 mph N/A   Scattered Clouds
3:55 PM 17.6 °F 2.2 °F 6.8 °F 63% 29.89 in 10.0 mi West 17.3 mph - N/A   Scattered Clouds
4:15 PM 17.6 °F 2.2 °F 6.8 °F 63% 29.91 in 10.0 mi West 17.3 mph 25.3 mph N/A   Scattered Clouds
4:35 PM 14.0 °F -3.9 °F 1.4 °F 57% 29.92 in 10.0 mi WNW 20.7 mph 26.5 mph N/A   Scattered Clouds
4:55 PM 12.2 °F -5.8 °F 3.2 °F 67% 29.93 in 10.0 mi WNW 19.6 mph 24.2 mph N/A   Mostly Cloudy
5:15 PM 10.4 °F -4.8 °F -0.4 °F 62% 29.94 in 10.0 mi West 12.7 mph 29.9 mph N/A   Mostly Cloudy
5:35 PM 10.4 °F -6.0 °F -2.2 °F 57% 29.96 in 10.0 mi West 15.0 mph 26.5 mph N/A   Scattered Clouds
5:55 PM 8.6 °F -9.5 °F -5.8 °F 52% 29.97 in 10.0 mi West 17.3 mph - N/A   Scattered Clouds
6:15 PM 8.6 °F -7.0 °F -5.8 °F 52% 29.99 in 10.0 mi WNW 12.7 mph 21.9 mph N/A   Mostly Cloudy
6:35 PM 6.8 °F -6.9 °F -5.8 °F 56% 30.01 in 10.0 mi WNW 9.2 mph 18.4 mph N/A   Mostly Cloudy
6:55 PM 6.8 °F -7.8 °F -5.8 °F 56% 30.02 in 10.0 mi West 10.4 mph 16.1 mph N/A   Overcast
7:15 PM 6.8 °F -9.3 °F -4.0 °F 61% 30.03 in 10.0 mi West 12.7 mph - N/A   Overcast
7:35 PM 5.0 °F -10.8 °F -5.8 °F 61% 30.03 in 10.0 mi West 11.5 mph - N/A   Overcast
7:55 PM 3.2 °F -13.9 °F -2.2 °F 78% 30.05 in 2.5 mi West 12.7 mph 17.3 mph N/A Snow Light Snow
8:15 PM 3.2 °F -11.3 °F -4.0 °F 72% 30.05 in 7.0 mi West 9.2 mph 17.3 mph N/A Snow Light Snow
8:35 PM 3.2 °F -13.9 °F -5.8 °F 66% 30.07 in 10.0 mi West 12.7 mph 17.3 mph N/A Snow Light Snow
8:55 PM 1.4 °F -16.1 °F -9.4 °F 61% 30.07 in 10.0 mi WNW 12.7 mph - N/A   Mostly Cloudy
9:15 PM 1.4 °F -18.8 °F -9.4 °F 61% 30.08 in 10.0 mi West 17.3 mph 20.7 mph N/A   Scattered Clouds
9:35 PM 1.4 °F -18.2 °F -9.4 °F 61% 30.08 in 10.0 mi West 16.1 mph 21.9 mph N/A   Scattered Clouds
9:55 PM 1.4 °F -18.8 °F -11.2 °F 56% 30.09 in 10.0 mi WNW 17.3 mph 25.3 mph N/A   Scattered Clouds
10:15 PM 1.4 °F -19.9 °F -11.2 °F 56% 30.09 in 10.0 mi WNW 19.6 mph 32.2 mph N/A   Clear
10:35 PM 1.4 °F -17.6 °F -11.2 °F 56% 30.09 in 10.0 mi WNW 15.0 mph 24.2 mph N/A   Clear
10:55 PM 1.4 °F -19.9 °F -11.2 °F 56% 30.09 in 10.0 mi West 19.6 mph 23.0 mph N/A   Scattered Clouds
11:15 PM -0.4 °F -19.9 °F -11.2 °F 60% 30.09 in 10.0 mi WNW 15.0 mph 21.9 mph N/A   Scattered Clouds
11:35 PM -0.4 °F -19.9 °F -11.2 °F 60% 30.08 in 10.0 mi WNW 15.0 mph 21.9 mph N/A   Scattered Clouds
11:55 PM -0.4 °F -19.2 °F -11.2 °F 60% 30.09 in 10.0 mi WNW 13.8 mph 21.9 mph N/A   Scattered Clouds